User: anonymous   Login
Location: Unspecified
(0.0000°N, 0.0000°E)
Time: 04:51:07
(UTC+00:00)
Language:

Kosmos-2195 - Orbit

View from above orbital plane
View from above orbital plane
View from above satellite
View from above satellite

Ground track
Ground track

The orbit data is extracted from the following two-line orbital elements,

1 22006U 92036A   18267.31829806 +.00000029 +00000-0 +14245-4 0  9992
2 22006 082.9381 351.8085 0036122 226.4865 194.0477 13.74929266316203
Epoch (UTC): 24 September 2018 07:38:20
Eccentricity: 0.0036122
inclination: 82.9381°
perigee height: 955 km
apogee height: 1008 km
right ascension of ascending node: 351.8085°
argument of perigee: 226.4865°
revolutions per day: 13.74929266
mean anomaly at epoch: 194.0477°
orbit number at epoch: 31620

The dashed part of the orbit path shows where the satellite is in the earth's shadow,  

DLR